Volver al catálogo

ONEWEB-0552

ActivoComunicacionesPO
NORAD 56054·PAYLOAD·🇬🇧 United Kingdom

Lanzado Mar 26, 2023 desde Satish Dhawan Space Centre

Loading…

Próximos Pases (próximas 24 horas)

TLE

ActualizadoSource: CelesTrak SupGP

Época: Sep 15, 2026, 04:10 UTC

1 56054C 23043J   26258.17411296  .00000142  00000+0  34331-3 0  2587
2 56054  87.9271 226.0676 0002231  78.1842  31.4683 13.21823065    10

Sigue ONEWEB-0552 en tiempo real con AllMySat

Download on the App Store